TimeEDT,TemperatureF,Dew PointF,Humidity,Sea Level PressureIn,VisibilityMPH,Wind Direction,Wind SpeedMPH,Gust SpeedMPH,PrecipitationIn,Events,Conditions,WindDirDegrees,DateUTC
12:53 AM,55.0,48.0,77,30.12,10.0,NE,11.5,-,N/A,,Overcast,50,2012-10-08 04:53:00
1:36 AM,55.4,48.2,77,30.13,10.0,NE,9.2,-,N/A,,Overcast,50,2012-10-08 05:36:00
1:51 AM,55.4,48.2,77,30.13,10.0,NE,11.5,-,N/A,,Overcast,50,2012-10-08 05:51:00
1:53 AM,55.0,48.9,80,30.12,10.0,NE,8.1,-,N/A,,Overcast,50,2012-10-08 05:53:00
2:53 AM,55.0,48.0,77,30.12,10.0,ENE,8.1,-,N/A,,Overcast,60,2012-10-08 06:53:00
3:53 AM,54.0,46.9,77,30.13,10.0,NE,10.4,-,N/A,,Overcast,50,2012-10-08 07:53:00
4:53 AM,53.1,44.1,71,30.13,10.0,NE,8.1,-,N/A,,Overcast,50,2012-10-08 08:53:00
5:53 AM,53.1,43.0,69,30.14,10.0,NE,9.2,18.4,N/A,,Overcast,40,2012-10-08 09:53:00
6:53 AM,52.0,39.9,63,30.15,10.0,NE,12.7,-,N/A,,Overcast,50,2012-10-08 10:53:00
7:53 AM,52.0,39.9,63,30.17,10.0,ENE,11.5,-,N/A,,Overcast,60,2012-10-08 11:53:00
8:29 AM,51.8,39.2,62,30.17,10.0,NE,15.0,-,N/A,,Overcast,40,2012-10-08 12:29:00
8:53 AM,52.0,39.0,61,30.16,10.0,NE,15.0,-,N/A,,Overcast,40,2012-10-08 12:53:00
9:36 AM,51.8,39.2,62,30.19,10.0,NNE,10.4,-,N/A,,Overcast,30,2012-10-08 13:36:00
9:53 AM,52.0,39.9,63,30.19,10.0,NE,11.5,-,N/A,,Overcast,40,2012-10-08 13:53:00
10:53 AM,53.1,42.1,66,30.20,10.0,ENE,13.8,-,N/A,,Overcast,60,2012-10-08 14:53:00
11:37 AM,53.6,42.8,67,30.20,10.0,ENE,12.7,17.3,N/A,,Overcast,60,2012-10-08 15:37:00
11:53 AM,53.1,42.1,66,30.20,10.0,NE,13.8,20.7,N/A,,Overcast,50,2012-10-08 15:53:00
12:53 PM,53.1,42.1,66,30.19,10.0,NE,10.4,19.6,N/A,,Overcast,50,2012-10-08 16:53:00
1:53 PM,52.0,44.1,74,30.16,10.0,NE,12.7,-,N/A,,Overcast,50,2012-10-08 17:53:00
2:53 PM,51.1,45.0,80,30.15,10.0,NE,9.2,-,N/A,,Overcast,40,2012-10-08 18:53:00
3:53 PM,51.1,45.0,80,30.14,10.0,NNE,9.2,-,N/A,,Overcast,20,2012-10-08 19:53:00
4:53 PM,51.1,45.0,80,30.13,10.0,NE,11.5,-,N/A,,Overcast,50,2012-10-08 20:53:00
5:53 PM,51.1,45.0,80,30.14,10.0,NNE,8.1,-,N/A,,Overcast,30,2012-10-08 21:53:00
6:53 PM,51.1,45.0,80,30.15,10.0,NE,5.8,-,N/A,,Overcast,50,2012-10-08 22:53:00
8:53 PM,50.0,45.0,83,30.16,10.0,NE,5.8,-,N/A,,Overcast,50,2012-10-09 00:53:00
9:09 PM,50.0,44.6,82,30.16,10.0,NE,8.1,-,N/A,,Overcast,50,2012-10-09 01:09:00
9:29 PM,50.0,44.6,82,30.16,10.0,ENE,9.2,-,N/A,,Overcast,60,2012-10-09 01:29:00
10:53 PM,50.0,45.0,83,30.19,10.0,NE,9.2,-,N/A,,Overcast,40,2012-10-09 02:53:00
11:53 PM,48.9,45.0,86,30.18,10.0,NE,6.9,-,N/A,,Overcast,50,2012-10-09 03:53:00